Location: Batang Balui
(2.7000°N, 113.7833°E)
Time: 18:42:53
(UTC+00:00)

Envisat - Pass Details

Date: 12 December 2022
Orbit: 763 x 765 km, 98.2° (Epoch: 29 January)

Event Time Altitude Azimuth Distance (km) Brightness Sun altitude
Exits shadow 20:46:18 31° 236° (SW) 1,308 3.9 -22.3°
Drops below altitude 10° 20:49:18 10° 211° (SSW) 2,296 5.4 -21.6°
Sets 20:51:42 0° 205° (SSW) 3,223 6.2 -21.0°
